This is the latest recevied weather packets stored in our database for station/object KO4LCK. If no packets are shown the sender has not sent any weather packets the latest 10 day(s).
| Time | Temp. | Humidity | Pressure | Rain* | Wind** | Luminosity | Snow |
|---|---|---|---|---|---|---|---|
| 1778003021 | 26.11° C | 35% | 1015.2 hPa | 0 mm | - | 876 W/m² | - |
| 1778002716 | 26.11° C | 35% | 1015.8 hPa | 0 mm | - | 901 W/m² | - |
| 1778002413 | 26.11° C | 34% | 1015.7 hPa | 0 mm | - | 735 W/m² | - |
| 1778002110 | 26.11° C | 35% | 1015.8 hPa | 0 mm | - | 697 W/m² | - |
| 1778001808 | 26.11° C | 37% | 1015.6 hPa | 0 mm | - | 879 W/m² | - |
| 1778001502 | 26.67° C | 39% | 1015.8 hPa | 0 mm | - | 882 W/m² | - |
| 1778001199 | 26.11° C | 44% | 1015.8 hPa | 0 mm | - | 831 W/m² | - |
| 1778000896 | 26.11° C | 39% | 1015.7 hPa | 0 mm | - | 713 W/m² | - |
| 1778000593 | 26.11° C | 40% | 1016 hPa | 0 mm | - | 872 W/m² | - |
| 1778000288 | 25.56° C | 37% | 1016 hPa | 0 mm | - | 790 W/m² | - |
| 1777999984 | 26.11° C | 38% | 1015.9 hPa | 0 mm | - | 723 W/m² | - |
| 1777999679 | 25.56° C | 39% | 1015.8 hPa | 0 mm | - | 779 W/m² | - |
| 1777999377 | 25.56° C | 40% | 1016 hPa | 0 mm | - | 805 W/m² | - |
| 1777999075 | 25.56° C | 38% | 1016 hPa | 0 mm | - | 821 W/m² | - |
| 1777998773 | 25.56° C | 40% | 1016.3 hPa | 0 mm | - | 813 W/m² | - |
| 1777998470 | 26.11° C | 39% | 1016 hPa | 0 mm | - | 814 W/m² | - |
| 1777998167 | 26.11° C | 41% | 1015.9 hPa | 0 mm | - | 800 W/m² | - |
| 1777997865 | 25° C | 44% | 1016.1 hPa | 0 mm | - | 781 W/m² | - |
| 1777997562 | 25° C | 46% | 1016 hPa | 0 mm | - | 802 W/m² | - |
| 1777997259 | 25° C | 44% | 1015.8 hPa | 0 mm | - | 766 W/m² | - |
| 1777996957 | 25° C | 45% | 1015.8 hPa | 0 mm | - | 755 W/m² | - |
| 1777996653 | 25° C | 49% | 1015.6 hPa | 0 mm | - | 738 W/m² | - |
| 1777996349 | 24.44° C | 47% | 1015.9 hPa | 0 mm | - | 723 W/m² | - |
| 1777996046 | 23.89° C | 47% | 1016.1 hPa | 0 mm | - | 716 W/m² | - |
| 1777995742 | 23.89° C | 47% | 1016 hPa | 0 mm | - | 708 W/m² | - |
* Rain latest hour (hover to see other rain measurements)
** Current wind speed in m/s (hover to see current wind gust speed)